KG5VSR Weather Reports


time (UTC)temp
C
wind
direction
speed
KPH
gust
KPH
rain 1hr
cm
rain 24hr
cm
rain mn
cm
humidity
%
barometer
mb
20260503024602 16 281 0.0 0.0 0.00 0.00 0.00 63 1020.2
20260503021600 17 281 0.0 0.0 0.00 0.00 0.00 63 1019.6
20260503014557 18 281 0.0 0.0 0.00 0.00 0.00 59 1019.4
20260503011558 20 281 0.0 0.0 0.00 0.00 0.00 53 1019.3
20260503004556 23 281 0.0 0.0 0.00 0.00 0.00 46 1019.2
20260503001555 24 278 3.2 3.2 0.00 0.00 0.00 39 1019.0
20260502234553 25 282 3.2 4.8 0.00 0.00 0.00 38 1019.1
20260502231550 25 217 0.0 1.6 0.00 0.00 0.00 36 1019.1
20260502224545 25 286 4.8 4.8 0.00 0.00 0.00 36 1019.5
20260502221544 25 273 1.6 1.6 0.00 0.00 0.00 35 1019.5
20260502214543 25 287 0.0 0.0 0.00 0.00 0.00 38 1019.8
20260502211538 25 281 3.2 3.2 0.00 0.00 0.00 37 1019.9
20260502204538 25 282 1.6 3.2 0.00 0.00 0.00 35 1020.3
20260502201537 25 356 4.8 4.8 0.00 0.00 0.00 36 1020.6
20260502194536 25 297 1.6 1.6 0.00 0.00 0.00 37 1021.1
20260502191534 25 350 4.8 4.8 0.00 0.00 0.00 34 1021.4
20260502184532 25 281 0.0 1.6 0.00 0.00 0.00 37 1021.7
20260502181527 25 204 0.0 0.0 0.00 0.00 0.00 37 1022.1
20260502161517 21 259 0.0 1.6 0.00 0.00 0.00 44 1023.1
20260502151027 20 288 0.0 1.6 0.00 0.00 0.00 55 1022.9
20260502121017 9 83 0.0 0.0 0.00 0.00 0.00 98 1021.2
20260502114015 9 83 0.0 0.0 0.00 0.00 0.00 98 1020.8
20260502111012 10 82 0.0 0.0 0.00 0.00 0.00 97 1020.0
20260502104008 10 83 0.0 0.0 0.00 0.00 0.00 97 1019.9
20260502101004 10 81 0.0 0.0 0.00 0.00 0.00 97 1019.6
20260502090957 10 82 0.0 0.0 0.00 0.00 0.00 98 1019.7
20260502070939 10 82 0.0 0.0 0.00 0.00 0.00 97 1019.6
20260502063936 10 82 0.0 0.0 0.00 0.00 0.00 97 1019.7
20260502060932 11 82 0.0 0.0 0.00 0.00 0.00 96 1019.5
20260502053929 11 82 0.0 0.0 0.00 0.00 0.00 95 1019.7
20260502050926 12 82 0.0 0.0 0.00 0.00 0.00 93 1019.6
20260502043923 12 82 0.0 0.0 0.00 0.00 0.00 92 1019.4
20260502040921 13 82 0.0 0.0 0.00 0.00 0.00 90 1019.3
20260502033917 13 82 0.0 0.0 0.00 0.00 0.00 88 1019.5